| time (UTC) | temp F | wind direction | speed knots | gust knots | rain 1hr in | rain 24hr in | rain mn in | humidity % | barometer mb |
| 20260906200004 | 62 | 264 | 2.6 | 7.8 | 0.00 | 0.01 | 0.01 | 76 | 1018.7 |
| 20260906193004 | 63 | 272 | 0.9 | 4.3 | 0.00 | 0.01 | 0.01 | 77 | 1018.5 |
| 20260906191504 | 63 | 288 | 0.9 | 5.2 | 0.00 | 0.01 | 0.01 | 77 | 1018.4 |
| 20260906181504 | 64 | 271 | 1.7 | 7.8 | 0.00 | 0.01 | 0.01 | 75 | 1017.6 |
| 20260906174504 | 64 | 265 | 1.7 | 6.1 | 0.00 | 0.03 | 0.01 | 77 | 1017.6 |
| 20260906170004 | 66 | 282 | 2.6 | 7.0 | 0.00 | 0.08 | 0.01 | 73 | 1017.1 |
| 20260906164504 | 67 | 261 | 2.6 | 7.0 | 0.00 | 0.08 | 0.01 | 73 | 1016.7 |
| 20260906160004 | 68 | 287 | 1.7 | 7.8 | 0.00 | 0.08 | 0.01 | 71 | 1016.7 |
| 20260906154503 | 69 | 275 | 1.7 | 4.3 | 0.00 | 0.08 | 0.01 | 69 | 1016.6 |
| 20260906153005 | 69 | 285 | 2.6 | 6.1 | 0.00 | 0.08 | 0.01 | 68 | 1016.4 |
| 20260906151504 | 70 | 288 | 2.6 | 5.2 | 0.00 | 0.08 | 0.01 | 65 | 1016.4 |
| 20260906143004 | 71 | 279 | 2.6 | 4.3 | 0.00 | 0.08 | 0.01 | 63 | 1016.6 |
| 20260906133004 | 69 | 280 | 0.9 | 4.3 | 0.00 | 0.08 | 0.01 | 68 | 1016.4 |
| 20260906123005 | 68 | 288 | 2.6 | 7.8 | 0.00 | 0.08 | 0.01 | 70 | 1016.2 |
| 20260906120005 | 68 | 298 | 0.9 | 4.3 | 0.00 | 0.08 | 0.01 | 71 | 1016.2 |
| 20260906114504 | 68 | 279 | 0.9 | 6.1 | 0.00 | 0.08 | 0.01 | 71 | 1016.1 |
| 20260906111505 | 67 | 280 | 4.3 | 7.0 | 0.00 | 0.08 | 0.01 | 70 | 1016.1 |
| 20260906104504 | 66 | 294 | 2.6 | 7.0 | 0.00 | 0.09 | 0.01 | 74 | 1015.9 |
| 20260906093004 | 63 | 246 | 0.0 | 5.2 | 0.00 | 0.11 | 0.01 | 80 | 1015.2 |
| 20260906091503 | 63 | 269 | 2.6 | 6.1 | 0.00 | 0.11 | 0.01 | 78 | 1015.2 |
| 20260906083005 | 61 | 279 | 2.6 | 7.8 | 0.00 | 0.11 | 0.01 | 82 | 1015.2 |
| 20260906081504 | 60 | 270 | 2.6 | 7.0 | 0.00 | 0.11 | 0.01 | 84 | 1014.8 |
| 20260906074504 | 59 | 266 | 2.6 | 5.2 | 0.00 | 0.11 | 0.01 | 85 | 1014.8 |
| 20260906073005 | 59 | 279 | 1.7 | 4.3 | 0.00 | 0.11 | 0.01 | 85 | 1014.4 |
| 20260906053004 | 55 | 277 | 2.6 | 6.1 | 0.00 | 0.11 | 0.01 | 91 | 1012.0 |
| 20260906051504 | 55 | 287 | 3.5 | 7.0 | 0.00 | 0.11 | 0.01 | 91 | 1012.0 |
| 20260906050004 | 55 | 287 | 3.5 | 7.0 | 0.00 | 0.11 | 0.01 | 91 | 1012.0 |
| 20260906044504 | 55 | 289 | 3.5 | 5.2 | 0.00 | 0.11 | 0.01 | 91 | 1012.0 |
| 20260906043004 | 54 | 286 | 1.7 | 5.2 | 0.00 | 0.11 | 0.01 | 92 | 1012.0 |
| 20260906034504 | 55 | 310 | 2.6 | 7.8 | 0.00 | 0.11 | 0.01 | 92 | 1011.1 |
| 20260906033006 | 55 | 300 | 2.6 | 7.8 | 0.00 | 0.11 | 0.01 | 92 | 1010.9 |
| 20260906024504 | 55 | 306 | 2.6 | 8.7 | 0.01 | 0.11 | 0.01 | 91 | 1010.2 |
| 20260906023005 | 55 | 334 | 2.6 | 7.8 | 0.01 | 0.11 | 0.01 | 91 | 1009.1 |
| 20260906021504 | 55 | 318 | 2.6 | 6.1 | 0.01 | 0.11 | 0.01 | 91 | 1009.1 |
| 20260906013005 | 55 | 300 | 3.5 | 7.8 | 0.00 | 0.10 | 0.00 | 91 | 1009.1 |
| 20260906001504 | 55 | 315 | 2.6 | 7.0 | 0.00 | 0.11 | 0.00 | 91 | 1007.8 |
| 20260905234504 | 56 | 320 | 3.5 | 7.0 | 0.00 | 0.11 | 0.00 | 90 | 1006.5 |
| 20260905221504 | 57 | 284 | 5.2 | 10.4 | 0.00 | 0.11 | 0.00 | 90 | 1005.3 |
| 20260905220004 | 57 | 281 | 4.3 | 7.0 | 0.00 | 0.11 | 0.00 | 90 | 1005.3 |
| 20260905214504 | 57 | 260 | 2.6 | 7.0 | 0.00 | 0.11 | 0.11 | 90 | 1005.3 |
| 20260905210004 | 57 | 223 | 3.5 | 8.7 | 0.00 | 0.11 | 0.11 | 88 | 1005.0 |
| 20260905204504 | 58 | 254 | 2.6 | 7.0 | 0.00 | 0.11 | 0.11 | 88 | 1004.9 |